Total_Precipitation_Accumulation
0.74 0.71 0.70 0.69 0.65 0.84 1.12 1.27 1.21 1.24 1.21 1.14 1.02 0.89 0.77 0.74 0.72 0.77 0.83 1.00 1.13 1.11 1.10 1.08 0.95 0.78 0.67 0.58 0.51 0.51 0.54 0.58 0.53 0.45 0.41 0.33 0.28 0.30 0.34 0.39 0.39 0.37 0.35
1.18 1.27 1.20 1.14 0.90 0.92 1.03 1.30 1.42 1.61 1.49 1.38 0.94 0.85 0.86 0.90 0.95 0.93 0.96 1.34 1.46 1.16 1.03 0.97 0.93 0.85 0.74 0.63 0.53 0.48 0.47 0.47 0.44 0.37 0.36 0.33 0.27 0.25 0.32 0.41 0.42 0.35 0.25
1.59 1.61 1.41 1.16 1.04 1.18 1.28 1.23 1.25 1.52 1.29 1.15 0.97 1.05 1.10 1.02 0.99 0.97 0.97 1.22 1.33 1.07 0.84 0.74 0.77 0.75 0.75 0.74 0.69 0.66 0.56 0.48 0.41 0.35 0.32 0.28 0.25 0.22 0.23 0.33 0.41 0.37 0.27
1.55 1.55 1.22 0.92 1.06 1.30 1.38 1.33 1.27 1.33 1.29 1.32 1.30 1.27 1.25 1.11 0.89 0.81 0.70 0.67 0.75 0.66 0.68 0.77 0.69 0.60 0.70 0.83 0.90 0.99 0.87 0.66 0.48 0.37 0.33 0.29 0.24 0.19 0.17 0.22 0.29 0.31 0.27
1.21 1.29 1.00 0.86 1.04 1.20 1.22 1.19 1.32 1.42 1.31 1.35 1.41 1.27 1.01 0.86 0.71 0.60 0.52 0.43 0.41 0.41 0.39 0.53 0.51 0.50 0.68 0.88 1.06 1.17 1.15 0.95 0.73 0.57 0.45 0.36 0.29 0.21 0.17 0.16 0.18 0.23 0.22
1.03 1.19 1.07 0.96 1.09 1.17 1.10 1.23 1.34 1.42 1.22 1.18 1.16 0.89 0.71 0.51 0.45 0.38 0.30 0.29 0.28 0.25 0.29 0.36 0.48 0.42 0.59 0.79 0.96 1.14 1.32 1.21 0.89 0.70 0.63 0.55 0.46 0.32 0.20 0.15 0.15 0.18 0.17
1.00 1.14 1.04 0.95 0.94 0.96 0.93 1.07 1.18 1.17 0.97 1.17 1.30 0.84 0.56 0.42 0.34 0.24 0.20 0.19 0.19 0.21 0.28 0.38 0.48 0.46 0.58 0.67 0.81 0.95 1.26 1.32 1.05 0.82 0.73 0.65 0.60 0.44 0.27 0.20 0.16 0.14 0.13
0.86 0.93 0.90 0.81 0.76 0.78 0.77 0.85 0.97 0.98 0.87 1.14 1.25 1.09 0.74 0.53 0.40 0.25 0.21 0.20 0.21 0.25 0.30 0.34 0.49 0.58 0.65 0.84 0.81 0.73 0.89 1.17 1.20 1.05 0.93 0.74 0.63 0.51 0.37 0.29 0.21 0.16 0.12
0.59 0.59 0.59 0.64 0.67 0.68 0.69 0.75 0.90 1.01 0.89 0.92 1.13 1.23 0.94 0.62 0.54 0.40 0.37 0.38 0.38 0.42 0.45 0.54 0.63 0.67 0.73 0.87 0.87 0.85 0.74 0.85 1.13 1.32 1.25 0.95 0.67 0.57 0.54 0.52 0.45 0.31 0.24
0.42 0.41 0.43 0.53 0.60 0.66 0.70 0.65 0.70 0.85 0.90 0.82 0.92 1.01 1.00 0.98 0.90 0.63 0.46 0.40 0.44 0.45 0.47 0.52 0.58 0.66 0.68 0.82 1.08 1.11 0.98 0.84 0.84 1.10 1.27 1.23 0.99 0.70 0.58 0.60 0.78 0.72 0.49
0.41 0.38 0.37 0.39 0.49 0.57 0.64 0.65 0.67 0.72 0.79 0.77 0.79 0.83 0.89 0.97 0.93 0.82 0.58 0.43 0.43 0.41 0.47 0.51 0.57 0.62 0.65 0.81 1.11 1.16 1.16 0.95 0.83 0.82 0.95 1.04 0.98 0.82 0.71 0.77 1.11 1.39 1.25
0.38 0.38 0.38 0.40 0.42 0.43 0.46 0.53 0.59 0.63 0.69 0.70 0.71 0.78 0.86 0.83 0.81 0.89 0.75 0.60 0.54 0.48 0.55 0.60 0.69 0.76 0.76 0.80 0.79 0.85 0.83 0.83 0.77 0.70 0.64 0.64 0.71 0.78 0.82 1.01 1.36 1.68 1.83
0.31 0.35 0.37 0.41 0.47 0.47 0.48 0.49 0.54 0.61 0.68 0.72 0.71 0.75 0.83 0.86 0.86 0.91 0.86 0.71 0.66 0.70 0.78 0.79 0.74 0.76 0.72 0.84 0.76 0.62 0.50 0.50 0.47 0.44 0.43 0.45 0.53 0.64 0.73 0.81 0.98 1.21 1.44
0.27 0.33 0.39 0.42 0.45 0.50 0.53 0.59 0.63 0.68 0.73 0.75 0.74 0.84 0.89 0.87 0.95 0.99 1.01 0.99 0.89 0.90 1.01 0.88 0.68 0.61 0.59 0.59 0.52 0.47 0.51 0.39 0.31 0.25 0.23 0.25 0.29 0.35 0.45 0.56 0.69 0.81 0.93
0.23 0.24 0.31 0.42 0.43 0.46 0.53 0.62 0.67 0.72 0.77 0.82 0.86 0.95 1.01 1.01 1.01 1.00 1.09 1.14 1.12 1.08 1.13 1.00 0.79 0.67 0.56 0.46 0.39 0.40 0.45 0.45 0.31 0.19 0.14 0.13 0.17 0.22 0.25 0.29 0.37 0.47 0.58
0.20 0.20 0.24 0.32 0.35 0.38 0.47 0.59 0.67 0.74 0.85 0.93 0.93 0.96 1.04 1.09 1.13 1.13 1.13 1.16 1.23 1.26 1.21 0.95 0.81 0.74 0.62 0.42 0.35 0.31 0.29 0.33 0.24 0.16 0.11 0.10 0.11 0.13 0.17 0.22 0.27 0.29 0.35
0.17 0.16 0.17 0.18 0.20 0.23 0.31 0.47 0.68 0.79 0.90 0.95 0.97 1.02 1.05 1.12 1.14 1.08 1.12 1.16 1.22 1.28 1.11 0.89 0.89 0.95 0.80 0.57 0.41 0.32 0.22 0.20 0.20 0.18 0.11 0.09 0.08 0.09 0.12 0.15 0.18 0.22 0.24
0.18 0.15 0.14 0.13 0.12 0.15 0.23 0.39 0.56 0.72 0.86 0.98 1.01 1.01 0.92 0.92 1.00 1.05 1.09 1.12 1.12 1.20 1.10 0.98 0.93 0.97 0.89 0.75 0.57 0.38 0.22 0.15 0.16 0.21 0.13 0.09 0.08 0.09 0.11 0.11 0.10 0.13 0.17
0.24 0.20 0.18 0.17 0.21 0.26 0.34 0.43 0.49 0.61 0.76 0.85 0.88 0.86 0.83 0.85 0.86 0.94 1.00 1.03 1.02 1.01 1.02 1.00 0.96 1.01 0.99 0.83 0.59 0.43 0.28 0.21 0.18 0.17 0.13 0.12 0.12 0.12 0.15 0.13 0.09 0.10 0.14
0.22 0.21 0.20 0.25 0.31 0.38 0.41 0.41 0.43 0.50 0.56 0.62 0.67 0.66 0.65 0.70 0.75 0.79 0.82 0.84 0.89 0.92 0.92 0.91 0.95 0.99 0.96 0.95 0.70 0.46 0.32 0.23 0.20 0.17 0.17 0.21 0.25 0.23 0.22 0.18 0.12 0.10 0.11
0.13 0.17 0.22 0.27 0.33 0.36 0.34 0.37 0.41 0.38 0.44 0.44 0.42 0.44 0.47 0.51 0.58 0.66 0.69 0.71 0.75 0.79 0.83 0.87 0.89 0.96 0.92 0.92 0.78 0.54 0.37 0.28 0.23 0.20 0.21 0.26 0.29 0.26 0.24 0.21 0.17 0.11 0.07
0.13 0.18 0.22 0.24 0.26 0.24 0.25 0.26 0.27 0.26 0.29 0.34 0.34 0.32 0.30 0.37 0.44 0.50 0.56 0.60 0.66 0.70 0.76 0.82 0.86 0.88 0.86 0.79 0.72 0.61 0.48 0.30 0.21 0.24 0.33 0.35 0.27 0.28 0.47 0.47 0.31 0.13 0.05
0.17 0.22 0.24 0.25 0.27 0.28 0.18 0.13 0.11 0.16 0.22 0.29 0.34 0.35 0.26 0.21 0.28 0.35 0.42 0.45 0.49 0.54 0.64 0.75 0.80 0.83 0.86 0.80 0.72 0.61 0.55 0.43 0.26 0.16 0.16 0.14 0.11 0.19 0.50 0.68 0.42 0.17 0.09
0.26 0.31 0.31 0.31 0.35 0.32 0.21 0.12 0.09 0.11 0.19 0.26 0.31 0.33 0.30 0.24 0.25 0.28 0.35 0.37 0.36 0.35 0.43 0.53 0.63 0.79 0.96 1.00 0.86 0.73 0.64 0.54 0.39 0.20 0.10 0.09 0.09 0.12 0.18 0.28 0.31 0.17 0.09
0.38 0.39 0.40 0.40 0.42 0.41 0.29 0.17 0.13 0.17 0.25 0.28 0.31 0.31 0.30 0.26 0.21 0.21 0.29 0.34 0.36 0.34 0.36 0.44 0.54 0.71 0.88 1.04 1.03 0.85 0.70 0.51 0.35 0.21 0.10 0.10 0.11 0.12 0.12 0.13 0.18 0.24 0.17
0.54 0.54 0.51 0.48 0.50 0.53 0.44 0.23 0.18 0.24 0.34 0.37 0.41 0.40 0.34 0.31 0.25 0.18 0.23 0.28 0.30 0.32 0.31 0.30 0.36 0.47 0.62 0.81 0.92 0.81 0.64 0.50 0.32 0.19 0.09 0.08 0.11 0.10 0.11 0.10 0.10 0.14 0.22